Location: Nelson
(41.2830°S, 173.2830°E)
Time: 17:07:49
(UTC+13:00)

Cosmos 2315 Rocket - Pass Details

Date: 24 January 2019
Orbit: 966 x 1002 km, 82.9° (Epoch: 17 October)

Event Time Altitude Azimuth Distance (km) Brightness Sun altitude
Rises 21:56:00 0° 187° (S) 3,748 7.8 -10.5°
Reaches altitude 10° 21:58:34 10° 186° (S) 2,788 7.1 -10.9°
Maximum altitude 22:04:59 83° 98° (E) 1,007 4.0 -11.8°
Drops below altitude 10° 22:11:16 10° 9° (N) 2,728 5.9 -12.7°
Enters shadow 22:11:55 - 8° (N) 2,972 6.1 -12.8°
